Location: Unspecified
(54.1780°N, 0.0000°E)
Time: 18:53:50
(UTC+00:00)

Altair - Pass Details

Date: 18 June 2019
Orbit: 1501 x 1683 km, 47.2° (Epoch: 20 July)

Event Time Altitude Azimuth Distance (km) Brightness Sun altitude
Rises 22:10:11 0° 241° (WSW) 4,758 10.0 -8.8°
Reaches altitude 10° 22:13:18 10° 237° (WSW) 3,799 9.5 -9.0°
Maximum altitude 22:22:36 53° 164° (SSE) 1,941 7.7 -9.6°
Drops below altitude 10° 22:32:13 10° 92° (E) 3,927 9.4 -10.1°
Sets 22:35:30 0° 88° (E) 4,928 10.0 -10.2°
